| time (UTC) | temp F | wind direction | speed MPH | gust MPH | rain 1hr in | rain 24hr in | rain mn in | humidity % | barometer mb |
| 20260831073229 | 84 | 148 | 1.0 | 1.0 | 0.00 | 0.00 | 0.00 | 50 | 1013.8 |
| 20260831072724 | 84 | 180 | 0.0 | 0.0 | 0.00 | 0.00 | 0.00 | 51 | 1013.8 |
| 20260831072220 | 84 | 181 | 0.0 | 0.0 | 0.00 | 0.00 | 0.00 | 50 | 1014.0 |
| 20260831071715 | 84 | 172 | 0.0 | 0.0 | 0.00 | 0.00 | 0.00 | 50 | 1013.8 |
| 20260831071215 | 84 | 154 | 0.0 | 1.0 | 0.00 | 0.00 | 0.00 | 50 | 1013.8 |
| 20260831070709 | 84 | 177 | 0.0 | 0.0 | 0.00 | 0.00 | 0.00 | 50 | 1014.0 |
| 20260831070203 | 85 | 183 | 0.0 | 0.0 | 0.00 | 0.00 | 0.00 | 50 | 1014.3 |
| 20260831065702 | 85 | 193 | 0.0 | 0.0 | 0.00 | 0.00 | 0.00 | 49 | 1014.0 |
| 20260831065201 | 85 | 194 | 0.0 | 1.0 | 0.00 | 0.00 | 0.00 | 49 | 1014.2 |
| 20260831064656 | 85 | 184 | 0.0 | 0.0 | 0.00 | 0.00 | 0.00 | 49 | 1014.2 |
| 20260831064151 | 86 | 183 | 0.0 | 0.0 | 0.00 | 0.00 | 0.00 | 48 | 1014.1 |
| 20260831063647 | 86 | 190 | 0.0 | 1.0 | 0.00 | 0.00 | 0.00 | 48 | 1014.2 |
| 20260831063142 | 86 | 194 | 1.0 | 1.0 | 0.00 | 0.00 | 0.00 | 47 | 1014.1 |
| 20260831062637 | 86 | 196 | 1.0 | 1.0 | 0.00 | 0.00 | 0.00 | 47 | 1014.4 |
| 20260831062136 | 85 | 198 | 2.0 | 2.0 | 0.00 | 0.00 | 0.00 | 48 | 1014.2 |
| 20260831061634 | 85 | 184 | 0.0 | 0.0 | 0.00 | 0.00 | 0.00 | 48 | 1014.4 |
| 20260831061130 | 85 | 184 | 0.0 | 0.0 | 0.00 | 0.00 | 0.00 | 48 | 1014.3 |
| 20260831060626 | 85 | 187 | 0.0 | 0.0 | 0.00 | 0.00 | 0.00 | 47 | 1014.5 |
| 20260831060121 | 86 | 188 | 0.0 | 0.0 | 0.00 | 0.00 | 0.00 | 47 | 1014.5 |
| 20260831055620 | 86 | 191 | 0.0 | 0.0 | 0.00 | 0.00 | 0.00 | 47 | 1014.2 |
| 20260831055116 | 86 | 195 | 0.0 | 0.0 | 0.00 | 0.00 | 0.00 | 47 | 1014.1 |
| 20260831054615 | 86 | 225 | 0.0 | 0.0 | 0.00 | 0.00 | 0.00 | 47 | 1014.1 |
| 20260831054114 | 86 | 193 | 0.0 | 0.0 | 0.00 | 0.00 | 0.00 | 47 | 1014.1 |
| 20260831053609 | 86 | 186 | 0.0 | 0.0 | 0.00 | 0.00 | 0.00 | 46 | 1014.1 |
| 20260831053108 | 86 | 186 | 0.0 | 0.0 | 0.00 | 0.00 | 0.00 | 46 | 1014.1 |
| 20260831052607 | 86 | 194 | 0.0 | 0.0 | 0.00 | 0.00 | 0.00 | 46 | 1014.1 |
| 20260831052101 | 87 | 213 | 0.0 | 0.0 | 0.00 | 0.00 | 0.00 | 45 | 1014.3 |
| 20260831051559 | 87 | 11 | 1.0 | 1.0 | 0.00 | 0.00 | 0.00 | 45 | 1013.8 |
| 20260831051058 | 86 | 30 | 1.0 | 2.0 | 0.00 | 0.00 | 0.00 | 45 | 1013.7 |
| 20260831050558 | 86 | 192 | 0.0 | 0.0 | 0.00 | 0.00 | 0.00 | 46 | 1013.6 |
| 20260831050056 | 87 | 207 | 0.0 | 0.0 | 0.00 | 0.00 | 0.00 | 45 | 1013.7 |
| 20260831045556 | 87 | 202 | 0.0 | 0.0 | 0.00 | 0.00 | 0.00 | 45 | 1013.7 |
| 20260831045052 | 87 | 248 | 2.0 | 2.0 | 0.00 | 0.00 | 0.00 | 44 | 1013.6 |
| 20260831044548 | 87 | 254 | 1.0 | 2.0 | 0.00 | 0.00 | 0.00 | 45 | 1013.8 |
| 20260831044043 | 87 | 299 | 1.0 | 2.0 | 0.00 | 0.00 | 0.00 | 44 | 1014.1 |
| 20260831043543 | 87 | 318 | 3.0 | 3.0 | 0.00 | 0.00 | 0.00 | 44 | 1013.7 |
| 20260831043038 | 87 | 292 | 2.0 | 2.0 | 0.00 | 0.00 | 0.00 | 44 | 1013.7 |
| 20260831042532 | 87 | 198 | 0.0 | 1.0 | 0.00 | 0.00 | 0.00 | 44 | 1013.8 |
| 20260831042032 | 87 | 259 | 2.0 | 2.0 | 0.00 | 0.00 | 0.00 | 44 | 1013.8 |
| 20260831041527 | 87 | 340 | 3.0 | 5.0 | 0.00 | 0.00 | 0.00 | 44 | 1013.6 |
| 20260831041021 | 88 | 332 | 2.0 | 2.0 | 0.00 | 0.00 | 0.00 | 44 | 1013.7 |
| 20260831040516 | 87 | 333 | 4.0 | 6.0 | 0.00 | 0.00 | 0.00 | 44 | 1013.5 |
| 20260831040016 | 88 | 312 | 1.0 | 1.0 | 0.00 | 0.00 | 0.00 | 44 | 1013.3 |
| 20260831035513 | 88 | 16 | 3.0 | 3.0 | 0.00 | 0.00 | 0.00 | 44 | 1013.3 |
| 20260831035009 | 88 | 324 | 3.0 | 5.0 | 0.00 | 0.00 | 0.00 | 44 | 1013.4 |
| 20260831034503 | 88 | 282 | 6.0 | 7.0 | 0.00 | 0.00 | 0.00 | 43 | 1013.0 |
| 20260831033959 | 88 | 327 | 7.0 | 10.0 | 0.00 | 0.00 | 0.00 | 43 | 1013.0 |
| 20260831033454 | 89 | 311 | 6.0 | 8.0 | 0.00 | 0.00 | 0.00 | 43 | 1013.1 |
| 20260831032950 | 89 | 5 | 4.0 | 7.0 | 0.00 | 0.00 | 0.00 | 42 | 1013.1 |
| 20260831032449 | 90 | 350 | 9.0 | 10.0 | 0.00 | 0.00 | 0.00 | 40 | 1012.9 |
| 20260831031945 | 90 | 130 | 8.0 | 11.0 | 0.00 | 0.00 | 0.00 | 40 | 1012.9 |
| 20260831031444 | 91 | 322 | 3.0 | 3.0 | 0.00 | 0.00 | 0.00 | 39 | 1012.3 |
| 20260831030943 | 91 | 303 | 6.0 | 7.0 | 0.00 | 0.00 | 0.00 | 39 | 1012.3 |
| 20260831030443 | 92 | 301 | 7.0 | 8.0 | 0.00 | 0.00 | 0.00 | 38 | 1012.1 |
| 20260831025941 | 93 | 294 | 8.0 | 10.0 | 0.00 | 0.00 | 0.00 | 38 | 1012.0 |
| 20260831025440 | 93 | 216 | 5.0 | 6.0 | 0.00 | 0.00 | 0.00 | 37 | 1011.9 |
| 20260831024936 | 93 | 259 | 4.0 | 5.0 | 0.00 | 0.00 | 0.00 | 36 | 1012.0 |
| 20260831024436 | 93 | 339 | 3.0 | 5.0 | 0.00 | 0.00 | 0.00 | 37 | 1011.7 |
| 20260831023931 | 93 | 270 | 1.0 | 2.0 | 0.00 | 0.00 | 0.00 | 37 | 1011.5 |
| 20260831023429 | 94 | 284 | 3.0 | 3.0 | 0.00 | 0.00 | 0.00 | 36 | 1011.5 |
| 20260831022925 | 94 | 266 | 6.0 | 8.0 | 0.00 | 0.00 | 0.00 | 35 | 1011.4 |
| 20260831022423 | 93 | 353 | 3.0 | 5.0 | 0.00 | 0.00 | 0.00 | 36 | 1011.1 |
| 20260831021924 | 94 | 275 | 4.0 | 5.0 | 0.00 | 0.00 | 0.00 | 35 | 1011.0 |
| 20260831021418 | 94 | 245 | 5.0 | 7.0 | 0.00 | 0.00 | 0.00 | 35 | 1011.2 |
| 20260831020914 | 94 | 24 | 4.0 | 5.0 | 0.00 | 0.00 | 0.00 | 35 | 1011.2 |
| 20260831020413 | 94 | 222 | 1.0 | 1.0 | 0.00 | 0.00 | 0.00 | 35 | 1011.4 |
| 20260831015908 | 94 | 273 | 6.0 | 7.0 | 0.00 | 0.00 | 0.00 | 34 | 1011.0 |
| 20260831015404 | 94 | 294 | 4.0 | 5.0 | 0.00 | 0.00 | 0.00 | 34 | 1011.0 |
| 20260831014904 | 94 | 331 | 2.0 | 3.0 | 0.00 | 0.00 | 0.00 | 34 | 1011.0 |
| 20260831014359 | 94 | 310 | 3.0 | 3.0 | 0.00 | 0.00 | 0.00 | 34 | 1011.0 |
| 20260831013855 | 95 | 263 | 5.0 | 6.0 | 0.00 | 0.00 | 0.00 | 34 | 1011.1 |
| 20260831013350 | 94 | 256 | 5.0 | 6.0 | 0.00 | 0.00 | 0.00 | 34 | 1010.8 |
| 20260831012844 | 95 | 281 | 3.0 | 3.0 | 0.00 | 0.00 | 0.00 | 34 | 1010.8 |
| 20260831012340 | 95 | 250 | 3.0 | 3.0 | 0.00 | 0.00 | 0.00 | 34 | 1010.8 |
| 20260831011840 | 95 | 290 | 3.0 | 5.0 | 0.00 | 0.00 | 0.00 | 34 | 1010.8 |
| 20260831011335 | 95 | 303 | 5.0 | 6.0 | 0.00 | 0.00 | 0.00 | 34 | 1010.8 |
| 20260831010831 | 95 | 270 | 5.0 | 7.0 | 0.00 | 0.00 | 0.00 | 34 | 1010.9 |
| 20260831010330 | 95 | 269 | 5.0 | 7.0 | 0.00 | 0.00 | 0.00 | 33 | 1011.0 |
| 20260831005826 | 95 | 4 | 4.0 | 5.0 | 0.00 | 0.00 | 0.00 | 34 | 1010.7 |
| 20260831005321 | 95 | 283 | 3.0 | 3.0 | 0.00 | 0.00 | 0.00 | 34 | 1010.6 |
| 20260831004816 | 95 | 302 | 3.0 | 3.0 | 0.00 | 0.00 | 0.00 | 33 | 1010.6 |
| 20260831004312 | 96 | 297 | 4.0 | 5.0 | 0.00 | 0.00 | 0.00 | 34 | 1010.6 |
| 20260831003808 | 96 | 272 | 5.0 | 6.0 | 0.00 | 0.00 | 0.00 | 33 | 1010.8 |
| 20260831003304 | 96 | 278 | 6.0 | 8.0 | 0.00 | 0.00 | 0.00 | 33 | 1010.8 |
| 20260831002803 | 97 | 344 | 3.0 | 5.0 | 0.00 | 0.00 | 0.00 | 34 | 1010.6 |
| 20260831002305 | 98 | 206 | 3.0 | 3.0 | 0.00 | 0.00 | 0.00 | 33 | 1010.8 |
| 20260831001758 | 97 | 109 | 4.0 | 5.0 | 0.00 | 0.00 | 0.00 | 33 | 1010.8 |
| 20260831001253 | 97 | 259 | 5.0 | 7.0 | 0.00 | 0.00 | 0.00 | 32 | 1010.8 |
| 20260831000751 | 97 | 283 | 5.0 | 6.0 | 0.00 | 0.00 | 0.00 | 32 | 1010.8 |
| 20260831000251 | 97 | 286 | 7.0 | 8.0 | 0.00 | 0.00 | 0.00 | 33 | 1011.0 |
| 20260830235749 | 97 | 193 | 2.0 | 2.0 | 0.00 | 0.00 | 0.00 | 32 | 1010.8 |
| 20260830235244 | 97 | 304 | 4.0 | 5.0 | 0.00 | 0.00 | 0.00 | 33 | 1010.7 |
| 20260830234739 | 97 | 245 | 7.0 | 9.0 | 0.00 | 0.00 | 0.00 | 33 | 1010.6 |
| 20260830234235 | 98 | 249 | 4.0 | 5.0 | 0.00 | 0.00 | 0.00 | 32 | 1010.6 |
| 20260830233731 | 97 | 6 | 3.0 | 3.0 | 0.00 | 0.00 | 0.00 | 32 | 1010.8 |
| 20260830233226 | 97 | 226 | 2.0 | 2.0 | 0.00 | 0.00 | 0.00 | 34 | 1010.8 |
| 20260830232721 | 96 | 228 | 3.0 | 3.0 | 0.00 | 0.00 | 0.00 | 34 | 1010.9 |
| 20260830232217 | 96 | 310 | 3.0 | 3.0 | 0.00 | 0.00 | 0.00 | 34 | 1011.1 |
| 20260830231714 | 98 | 289 | 4.0 | 6.0 | 0.00 | 0.00 | 0.00 | 33 | 1011.1 |
| 20260830231213 | 97 | 284 | 9.0 | 11.0 | 0.00 | 0.00 | 0.00 | 34 | 1011.1 |
| 20260830230708 | 99 | 249 | 5.0 | 6.0 | 0.00 | 0.00 | 0.00 | 33 | 1011.0 |
| 20260830230203 | 98 | 223 | 2.0 | 2.0 | 0.00 | 0.00 | 0.00 | 31 | 1011.5 |
| 20260830225657 | 98 | 25 | 2.0 | 2.0 | 0.00 | 0.00 | 0.00 | 33 | 1011.5 |
| 20260830225152 | 98 | 260 | 5.0 | 6.0 | 0.00 | 0.00 | 0.00 | 32 | 1011.4 |
| 20260830224651 | 99 | 223 | 1.0 | 2.0 | 0.00 | 0.00 | 0.00 | 33 | 1011.5 |
| 20260830224147 | 97 | 184 | 3.0 | 3.0 | 0.00 | 0.00 | 0.00 | 32 | 1011.8 |
| 20260830223644 | 97 | 184 | 4.0 | 5.0 | 0.00 | 0.00 | 0.00 | 33 | 1011.9 |
| 20260830223143 | 98 | 34 | 3.0 | 5.0 | 0.00 | 0.00 | 0.00 | 33 | 1011.9 |
| 20260830222638 | 96 | 279 | 5.0 | 5.0 | 0.00 | 0.00 | 0.00 | 34 | 1012.0 |
| 20260830222134 | 97 | 261 | 6.0 | 7.0 | 0.00 | 0.00 | 0.00 | 34 | 1012.1 |
| 20260830221629 | 98 | 260 | 8.0 | 10.0 | 0.00 | 0.00 | 0.00 | 33 | 1012.3 |
| 20260830221126 | 97 | 203 | 2.0 | 2.0 | 0.00 | 0.00 | 0.00 | 33 | 1012.4 |
| 20260830220621 | 97 | 292 | 8.0 | 9.0 | 0.00 | 0.00 | 0.00 | 34 | 1012.3 |
| 20260830220120 | 98 | 302 | 5.0 | 6.0 | 0.00 | 0.00 | 0.00 | 33 | 1012.5 |
| 20260830215619 | 98 | 224 | 0.0 | 1.0 | 0.00 | 0.00 | 0.00 | 31 | 1012.5 |
| 20260830215113 | 97 | 214 | 1.0 | 1.0 | 0.00 | 0.00 | 0.00 | 32 | 1012.7 |
| 20260830214608 | 97 | 15 | 3.0 | 5.0 | 0.00 | 0.00 | 0.00 | 31 | 1012.9 |
| 20260830214058 | 97 | 193 | 0.0 | 1.0 | 0.00 | 0.00 | 0.00 | 32 | 1012.8 |
| 20260830213557 | 97 | 205 | 5.0 | 7.0 | 0.00 | 0.00 | 0.00 | 32 | 1013.0 |
| 20260830213053 | 97 | 200 | 1.0 | 1.0 | 0.00 | 0.00 | 0.00 | 32 | 1012.8 |
| 20260830212549 | 97 | 236 | 3.0 | 3.0 | 0.00 | 0.00 | 0.00 | 32 | 1012.9 |
| 20260830212048 | 96 | 325 | 2.0 | 3.0 | 0.00 | 0.00 | 0.00 | 32 | 1013.0 |
| 20260830211543 | 96 | 247 | 3.0 | 5.0 | 0.00 | 0.00 | 0.00 | 33 | 1013.3 |
| 20260830211038 | 97 | 272 | 4.0 | 5.0 | 0.00 | 0.00 | 0.00 | 33 | 1013.2 |
| 20260830210533 | 95 | 238 | 5.0 | 6.0 | 0.00 | 0.00 | 0.00 | 34 | 1013.2 |
| 20260830210032 | 97 | 301 | 5.0 | 6.0 | 0.00 | 0.00 | 0.00 | 31 | 1013.2 |
| 20260830205530 | 97 | 27 | 3.0 | 3.0 | 0.00 | 0.00 | 0.00 | 30 | 1013.7 |
| 20260830205026 | 98 | 7 | 4.0 | 5.0 | 0.00 | 0.00 | 0.00 | 30 | 1013.7 |
| 20260830204524 | 96 | 247 | 3.0 | 3.0 | 0.00 | 0.00 | 0.00 | 32 | 1013.7 |
| 20260830204019 | 96 | 292 | 8.0 | 9.0 | 0.00 | 0.00 | 0.00 | 33 | 1014.1 |
| 20260830203515 | 96 | 208 | 9.0 | 10.0 | 0.00 | 0.00 | 0.00 | 32 | 1014.1 |
| 20260830203010 | 96 | 291 | 5.0 | 6.0 | 0.00 | 0.00 | 0.00 | 34 | 1014.1 |
| 20260830202504 | 96 | 302 | 2.0 | 2.0 | 0.00 | 0.00 | 0.00 | 35 | 1014.3 |
| 20260830202000 | 96 | 321 | 3.0 | 3.0 | 0.00 | 0.00 | 0.00 | 34 | 1014.5 |
| 20260830201459 | 97 | 60 | 2.0 | 2.0 | 0.00 | 0.00 | 0.00 | 34 | 1014.1 |
| 20260830200954 | 96 | 16 | 3.0 | 3.0 | 0.00 | 0.00 | 0.00 | 34 | 1014.3 |
| 20260830200454 | 95 | 220 | 4.0 | 5.0 | 0.00 | 0.00 | 0.00 | 37 | 1014.4 |
| 20260830195954 | 95 | 234 | 4.0 | 5.0 | 0.00 | 0.00 | 0.00 | 35 | 1014.8 |
| 20260830195450 | 95 | 288 | 7.0 | 9.0 | 0.00 | 0.00 | 0.00 | 35 | 1014.5 |
| 20260830194948 | 95 | 56 | 1.0 | 1.0 | 0.00 | 0.00 | 0.00 | 33 | 1014.8 |
| 20260830194447 | 94 | 208 | 6.0 | 7.0 | 0.00 | 0.00 | 0.00 | 36 | 1014.8 |
| 20260830193942 | 94 | 272 | 4.0 | 6.0 | 0.00 | 0.00 | 0.00 | 36 | 1014.9 |
| 20260830193440 | 94 | 191 | 4.0 | 6.0 | 0.00 | 0.00 | 0.00 | 36 | 1014.9 |
| 20260830192936 | 95 | 225 | 5.0 | 7.0 | 0.00 | 0.00 | 0.00 | 36 | 1015.1 |
| 20260830192432 | 93 | 239 | 2.0 | 2.0 | 0.00 | 0.00 | 0.00 | 37 | 1015.0 |
| 20260830191926 | 92 | 201 | 1.0 | 1.0 | 0.00 | 0.00 | 0.00 | 39 | 1015.4 |
| 20260830191421 | 92 | 227 | 7.0 | 7.0 | 0.00 | 0.00 | 0.00 | 40 | 1015.5 |
| 20260830190917 | 93 | 221 | 5.0 | 6.0 | 0.00 | 0.00 | 0.00 | 38 | 1015.5 |
| 20260830190411 | 93 | 232 | 8.0 | 9.0 | 0.00 | 0.00 | 0.00 | 37 | 1015.4 |
| 20260830185910 | 94 | 202 | 0.0 | 1.0 | 0.00 | 0.00 | 0.00 | 35 | 1015.4 |
| 20260830185406 | 93 | 343 | 3.0 | 5.0 | 0.00 | 0.00 | 0.00 | 36 | 1015.6 |
| 20260830184901 | 93 | 205 | 8.0 | 9.0 | 0.00 | 0.00 | 0.00 | 36 | 1015.6 |
| 20260830184400 | 94 | 215 | 6.0 | 7.0 | 0.00 | 0.00 | 0.00 | 37 | 1015.8 |
| 20260830183859 | 93 | 200 | 6.0 | 7.0 | 0.00 | 0.00 | 0.00 | 37 | 1015.6 |
| 20260830183354 | 91 | 252 | 4.0 | 5.0 | 0.00 | 0.00 | 0.00 | 40 | 1015.8 |
| 20260830182850 | 91 | 80 | 2.0 | 2.0 | 0.00 | 0.00 | 0.00 | 40 | 1015.9 |
| 20260830182346 | 91 | 180 | 1.0 | 1.0 | 0.00 | 0.00 | 0.00 | 41 | 1016.0 |
| 20260830181842 | 91 | 213 | 7.0 | 8.0 | 0.00 | 0.00 | 0.00 | 40 | 1015.9 |
| 20260830181337 | 93 | 206 | 3.0 | 3.0 | 0.00 | 0.00 | 0.00 | 39 | 1016.3 |
| 20260830180836 | 91 | 200 | 2.0 | 5.0 | 0.00 | 0.00 | 0.00 | 41 | 1016.0 |
| 20260830180331 | 91 | 213 | 8.0 | 9.0 | 0.00 | 0.00 | 0.00 | 42 | 1016.3 |
| 20260830175830 | 93 | 193 | 1.0 | 2.0 | 0.00 | 0.00 | 0.00 | 39 | 1016.4 |
| 20260830175325 | 90 | 199 | 3.0 | 5.0 | 0.00 | 0.00 | 0.00 | 42 | 1016.2 |
| 20260830174820 | 90 | 201 | 4.0 | 6.0 | 0.00 | 0.00 | 0.00 | 42 | 1016.4 |
| 20260830174316 | 90 | 178 | 4.0 | 5.0 | 0.00 | 0.00 | 0.00 | 44 | 1016.3 |
| 20260830173815 | 89 | 209 | 3.0 | 3.0 | 0.00 | 0.00 | 0.00 | 43 | 1016.2 |
| 20260830173311 | 88 | 209 | 3.0 | 3.0 | 0.00 | 0.00 | 0.00 | 46 | 1016.4 |
| 20260830172807 | 88 | 131 | 3.0 | 5.0 | 0.00 | 0.00 | 0.00 | 46 | 1016.3 |
| 20260830172306 | 87 | 191 | 3.0 | 5.0 | 0.00 | 0.00 | 0.00 | 46 | 1016.6 |
| 20260830171759 | 87 | 201 | 8.0 | 9.0 | 0.00 | 0.00 | 0.00 | 47 | 1016.3 |
| 20260830171254 | 87 | 233 | 7.0 | 7.0 | 0.00 | 0.00 | 0.00 | 47 | 1016.7 |
| 20260830170748 | 88 | 215 | 5.0 | 6.0 | 0.00 | 0.00 | 0.00 | 46 | 1016.4 |
| 20260830170248 | 87 | 187 | 5.0 | 6.0 | 0.00 | 0.00 | 0.00 | 49 | 1016.8 |
| 20260830165747 | 88 | 208 | 7.0 | 8.0 | 0.00 | 0.00 | 0.00 | 48 | 1016.6 |
| 20260830165243 | 87 | 157 | 3.0 | 5.0 | 0.00 | 0.00 | 0.00 | 47 | 1016.4 |
| 20260830164739 | 87 | 174 | 6.0 | 8.0 | 0.00 | 0.00 | 0.00 | 49 | 1016.6 |
| 20260830164235 | 86 | 203 | 3.0 | 3.0 | 0.00 | 0.00 | 0.00 | 49 | 1016.7 |
| 20260830163732 | 86 | 155 | 3.0 | 5.0 | 0.00 | 0.00 | 0.00 | 49 | 1016.4 |
| 20260830163227 | 86 | 174 | 1.0 | 1.0 | 0.00 | 0.00 | 0.00 | 49 | 1016.6 |
| 20260830162721 | 86 | 216 | 1.0 | 2.0 | 0.00 | 0.00 | 0.00 | 48 | 1016.7 |
| 20260830162217 | 86 | 274 | 1.0 | 2.0 | 0.00 | 0.00 | 0.00 | 48 | 1016.7 |
| 20260830161713 | 86 | 224 | 1.0 | 2.0 | 0.00 | 0.00 | 0.00 | 48 | 1016.4 |
| 20260830161206 | 87 | 154 | 1.0 | 1.0 | 0.00 | 0.00 | 0.00 | 47 | 1016.7 |
| 20260830160702 | 87 | 181 | 6.0 | 8.0 | 0.00 | 0.00 | 0.00 | 47 | 1016.8 |
| 20260830160157 | 87 | 212 | 6.0 | 7.0 | 0.00 | 0.00 | 0.00 | 47 | 1016.8 |
| 20260830155654 | 86 | 171 | 2.0 | 3.0 | 0.00 | 0.00 | 0.00 | 48 | 1016.8 |
| 20260830155149 | 86 | 178 | 3.0 | 3.0 | 0.00 | 0.00 | 0.00 | 47 | 1016.7 |
| 20260830154644 | 86 | 197 | 2.0 | 3.0 | 0.00 | 0.00 | 0.00 | 49 | 1016.7 |
| 20260830154140 | 85 | 175 | 1.0 | 1.0 | 0.00 | 0.00 | 0.00 | 49 | 1016.6 |
| 20260830153637 | 84 | 200 | 1.0 | 1.0 | 0.00 | 0.00 | 0.00 | 50 | 1016.7 |
| 20260830153136 | 83 | 205 | 2.0 | 2.0 | 0.00 | 0.00 | 0.00 | 53 | 1016.7 |
| 20260830152635 | 83 | 210 | 4.0 | 5.0 | 0.00 | 0.00 | 0.00 | 52 | 1016.4 |
| 20260830152135 | 83 | 204 | 6.0 | 7.0 | 0.00 | 0.00 | 0.00 | 53 | 1016.8 |
| 20260830151630 | 83 | 194 | 4.0 | 5.0 | 0.00 | 0.00 | 0.00 | 53 | 1016.7 |
| 20260830151129 | 83 | 183 | 4.0 | 5.0 | 0.00 | 0.00 | 0.00 | 53 | 1016.6 |
| 20260830150624 | 83 | 224 | 3.0 | 5.0 | 0.00 | 0.00 | 0.00 | 54 | 1016.6 |
| 20260830150119 | 82 | 225 | 4.0 | 5.0 | 0.00 | 0.00 | 0.00 | 55 | 1016.8 |
| 20260830145618 | 82 | 220 | 3.0 | 3.0 | 0.00 | 0.00 | 0.00 | 55 | 1016.8 |
| 20260830145114 | 82 | 197 | 2.0 | 2.0 | 0.00 | 0.00 | 0.00 | 55 | 1016.8 |
| 20260830144609 | 82 | 204 | 1.0 | 1.0 | 0.00 | 0.00 | 0.00 | 55 | 1016.7 |
| 20260830144105 | 81 | 204 | 1.0 | 1.0 | 0.00 | 0.00 | 0.00 | 56 | 1016.7 |
| 20260830143601 | 82 | 187 | 0.0 | 0.0 | 0.00 | 0.00 | 0.00 | 58 | 1016.7 |
| 20260830143059 | 81 | 149 | 0.0 | 0.0 | 0.00 | 0.00 | 0.00 | 56 | 1016.8 |
| 20260830142554 | 81 | 192 | 0.0 | 0.0 | 0.00 | 0.00 | 0.00 | 56 | 1016.8 |
| 20260830142049 | 81 | 211 | 1.0 | 1.0 | 0.00 | 0.00 | 0.00 | 56 | 1016.8 |
| 20260830141545 | 81 | 194 | 0.0 | 0.0 | 0.00 | 0.00 | 0.00 | 56 | 1016.6 |
| 20260830141045 | 81 | 199 | 0.0 | 0.0 | 0.00 | 0.00 | 0.00 | 56 | 1016.7 |
| 20260830140539 | 81 | 207 | 0.0 | 0.0 | 0.00 | 0.00 | 0.00 | 55 | 1016.7 |
| 20260830140035 | 81 | 197 | 0.0 | 0.0 | 0.00 | 0.00 | 0.00 | 56 | 1016.6 |
| 20260830135529 | 81 | 253 | 0.0 | 0.0 | 0.00 | 0.00 | 0.00 | 55 | 1016.8 |
| 20260830135024 | 81 | 211 | 0.0 | 0.0 | 0.00 | 0.00 | 0.00 | 55 | 1016.8 |
| 20260830134521 | 81 | 200 | 0.0 | 0.0 | 0.00 | 0.00 | 0.00 | 56 | 1016.8 |
| 20260830134016 | 81 | 207 | 0.0 | 0.0 | 0.00 | 0.00 | 0.00 | 55 | 1016.8 |
| 20260830133511 | 81 | 200 | 0.0 | 0.0 | 0.00 | 0.00 | 0.00 | 55 | 1016.8 |
| 20260830133006 | 81 | 187 | 0.0 | 0.0 | 0.00 | 0.00 | 0.00 | 55 | 1016.8 |
| 20260830132503 | 81 | 189 | 1.0 | 2.0 | 0.00 | 0.00 | 0.00 | 56 | 1016.8 |
| 20260830132002 | 81 | 188 | 0.0 | 0.0 | 0.00 | 0.00 | 0.00 | 55 | 1016.7 |
| 20260830131501 | 81 | 187 | 0.0 | 0.0 | 0.00 | 0.00 | 0.00 | 55 | 1016.6 |
| 20260830130956 | 81 | 178 | 0.0 | 0.0 | 0.00 | 0.00 | 0.00 | 55 | 1016.6 |
| 20260830130452 | 81 | 165 | 0.0 | 1.0 | 0.00 | 0.00 | 0.00 | 55 | 1016.4 |
| 20260830125950 | 81 | 146 | 2.0 | 2.0 | 0.00 | 0.00 | 0.00 | 55 | 1016.3 |
| 20260830125446 | 81 | 201 | 4.0 | 5.0 | 0.00 | 0.00 | 0.00 | 55 | 1016.4 |
| 20260830124944 | 81 | 155 | 1.0 | 1.0 | 0.00 | 0.00 | 0.00 | 55 | 1016.4 |
| 20260830124439 | 81 | 193 | 0.0 | 0.0 | 0.00 | 0.00 | 0.00 | 55 | 1016.3 |
| 20260830123936 | 81 | 169 | 0.0 | 1.0 | 0.00 | 0.00 | 0.00 | 55 | 1016.4 |
| 20260830123432 | 81 | 195 | 0.0 | 0.0 | 0.00 | 0.00 | 0.00 | 55 | 1016.2 |
| 20260830122929 | 81 | 179 | 5.0 | 6.0 | 0.00 | 0.00 | 0.00 | 55 | 1016.2 |
| 20260830122429 | 81 | 207 | 1.0 | 1.0 | 0.00 | 0.00 | 0.00 | 55 | 1016.2 |
| 20260830121924 | 82 | 192 | 5.0 | 6.0 | 0.00 | 0.00 | 0.00 | 54 | 1016.1 |
| 20260830121420 | 82 | 221 | 9.0 | 9.0 | 0.00 | 0.00 | 0.00 | 53 | 1016.2 |
| 20260830120914 | 82 | 261 | 2.0 | 2.0 | 0.00 | 0.00 | 0.00 | 53 | 1016.0 |
| 20260830120410 | 82 | 204 | 3.0 | 5.0 | 0.00 | 0.00 | 0.00 | 53 | 1015.7 |
| 20260830115906 | 82 | 183 | 2.0 | 3.0 | 0.00 | 0.00 | 0.00 | 53 | 1015.8 |
| 20260830115402 | 82 | 196 | 3.0 | 5.0 | 0.00 | 0.00 | 0.00 | 53 | 1015.7 |
| 20260830114857 | 82 | 201 | 4.0 | 8.0 | 0.00 | 0.00 | 0.00 | 52 | 1015.4 |
| 20260830114354 | 82 | 128 | 3.0 | 3.0 | 0.00 | 0.00 | 0.00 | 53 | 1015.3 |
| 20260830113848 | 82 | 174 | 6.0 | 8.0 | 0.00 | 0.00 | 0.00 | 53 | 1015.3 |
| 20260830113348 | 82 | 177 | 6.0 | 8.0 | 0.00 | 0.00 | 0.00 | 52 | 1015.0 |
| 20260830112844 | 83 | 191 | 7.0 | 16.0 | 0.00 | 0.00 | 0.00 | 51 | 1015.5 |
| 20260830112340 | 83 | 198 | 7.0 | 9.0 | 0.00 | 0.00 | 0.00 | 51 | 1015.5 |
| 20260830111836 | 83 | 187 | 5.0 | 7.0 | 0.00 | 0.00 | 0.00 | 51 | 1015.4 |
| 20260830111331 | 83 | 226 | 4.0 | 5.0 | 0.00 | 0.00 | 0.00 | 49 | 1015.5 |
| 20260830110826 | 84 | 190 | 8.0 | 15.0 | 0.00 | 0.00 | 0.00 | 48 | 1015.5 |
| 20260830110322 | 84 | 198 | 4.0 | 8.0 | 0.00 | 0.00 | 0.00 | 48 | 1015.5 |
| 20260830105821 | 84 | 230 | 2.0 | 5.0 | 0.00 | 0.00 | 0.00 | 48 | 1015.6 |
| 20260830105317 | 84 | 124 | 3.0 | 5.0 | 0.00 | 0.00 | 0.00 | 47 | 1015.4 |
| 20260830104814 | 84 | 135 | 2.0 | 3.0 | 0.00 | 0.00 | 0.00 | 47 | 1015.3 |
| 20260830104310 | 83 | 129 | 3.0 | 5.0 | 0.00 | 0.00 | 0.00 | 47 | 1015.7 |
| 20260830103809 | 82 | 177 | 0.0 | 1.0 | 0.00 | 0.00 | 0.00 | 48 | 1015.7 |
| 20260830103305 | 83 | 211 | 1.0 | 1.0 | 0.00 | 0.00 | 0.00 | 48 | 1015.5 |
| 20260830102803 | 83 | 197 | 0.0 | 0.0 | 0.00 | 0.00 | 0.00 | 48 | 1015.5 |
| 20260830102259 | 83 | 184 | 0.0 | 0.0 | 0.00 | 0.00 | 0.00 | 47 | 1015.4 |
| 20260830101754 | 83 | 179 | 0.0 | 0.0 | 0.00 | 0.00 | 0.00 | 47 | 1015.1 |
| 20260830101250 | 83 | 140 | 0.0 | 1.0 | 0.00 | 0.00 | 0.00 | 47 | 1015.0 |
| 20260830100748 | 83 | 182 | 0.0 | 0.0 | 0.00 | 0.00 | 0.00 | 47 | 1015.1 |
| 20260830100244 | 83 | 176 | 0.0 | 0.0 | 0.00 | 0.00 | 0.00 | 46 | 1014.7 |
| 20260830095742 | 84 | 185 | 0.0 | 0.0 | 0.00 | 0.00 | 0.00 | 46 | 1014.7 |
| 20260830095238 | 83 | 187 | 1.0 | 1.0 | 0.00 | 0.00 | 0.00 | 46 | 1014.8 |
| 20260830094734 | 83 | 131 | 3.0 | 3.0 | 0.00 | 0.00 | 0.00 | 47 | 1014.7 |
| 20260830094230 | 82 | 141 | 1.0 | 1.0 | 0.00 | 0.00 | 0.00 | 48 | 1014.7 |
| 20260830093725 | 82 | 138 | 2.0 | 2.0 | 0.00 | 0.00 | 0.00 | 48 | 1014.6 |
| 20260830093221 | 83 | 162 | 1.0 | 1.0 | 0.00 | 0.00 | 0.00 | 49 | 1014.4 |
| 20260830092721 | 83 | 127 | 1.0 | 2.0 | 0.00 | 0.00 | 0.00 | 48 | 1014.5 |
| 20260830092218 | 83 | 149 | 1.0 | 1.0 | 0.00 | 0.00 | 0.00 | 48 | 1014.7 |
| 20260830091714 | 84 | 181 | 0.0 | 1.0 | 0.00 | 0.00 | 0.00 | 47 | 1014.6 |
| 20260830091213 | 84 | 222 | 4.0 | 6.0 | 0.00 | 0.00 | 0.00 | 46 | 1014.7 |
| 20260830090712 | 84 | 116 | 3.0 | 5.0 | 0.00 | 0.00 | 0.00 | 45 | 1014.3 |
| 20260830090209 | 84 | 114 | 3.0 | 3.0 | 0.00 | 0.00 | 0.00 | 46 | 1014.5 |
| 20260830085707 | 84 | 144 | 4.0 | 5.0 | 0.00 | 0.00 | 0.00 | 46 | 1014.2 |
| 20260830085203 | 84 | 151 | 2.0 | 2.0 | 0.00 | 0.00 | 0.00 | 46 | 1014.5 |
| 20260830084659 | 84 | 119 | 2.0 | 2.0 | 0.00 | 0.00 | 0.00 | 47 | 1014.2 |
| 20260830084154 | 84 | 65 | 1.0 | 2.0 | 0.00 | 0.00 | 0.00 | 47 | 1014.3 |
| 20260830083649 | 84 | 167 | 3.0 | 3.0 | 0.00 | 0.00 | 0.00 | 47 | 1014.3 |
| 20260830083144 | 84 | 114 | 3.0 | 3.0 | 0.00 | 0.00 | 0.00 | 47 | 1014.2 |
| 20260830082644 | 84 | 80 | 2.0 | 2.0 | 0.00 | 0.00 | 0.00 | 47 | 1014.5 |
| 20260830082140 | 84 | 131 | 2.0 | 2.0 | 0.00 | 0.00 | 0.00 | 47 | 1014.5 |
| 20260830081636 | 85 | 43 | 3.0 | 3.0 | 0.00 | 0.00 | 0.00 | 46 | 1014.5 |
| 20260830081134 | 85 | 57 | 2.0 | 3.0 | 0.00 | 0.00 | 0.00 | 46 | 1014.2 |
| 20260830080630 | 84 | 127 | 3.0 | 5.0 | 0.00 | 0.00 | 0.00 | 46 | 1014.0 |
| 20260830080125 | 84 | 115 | 5.0 | 7.0 | 0.00 | 0.00 | 0.00 | 47 | 1013.8 |
| 20260830075624 | 84 | 107 | 3.0 | 5.0 | 0.00 | 0.00 | 0.00 | 47 | 1014.1 |
| 20260830075120 | 84 | 136 | 9.0 | 11.0 | 0.00 | 0.00 | 0.00 | 47 | 1013.8 |
| 20260830074615 | 84 | 110 | 5.0 | 6.0 | 0.00 | 0.00 | 0.00 | 47 | 1013.7 |
| 20260830074111 | 84 | 69 | 11.0 | 15.0 | 0.00 | 0.00 | 0.00 | 47 | 1013.5 |
| 20260830073608 | 84 | 72 | 6.0 | 9.0 | 0.00 | 0.00 | 0.00 | 47 | 1013.5 |